CZ-6A DEB

Satellite information

Favourite Embed

Satellite Type and Status

DEBRISIN ORBIT

Key statistics

Satellite CZ-6A DEB at a glance.

Uptime

396

Days in orbit

Revolutions

≈ 14.6

Per day

Orbit

LEO

Low Earth Orbit

Inclination

89.1

Latest

Satellite identification and parameters

Extended collection of information and parameters for CZ-6A DEB.

Object identification

Identified? True

Debris? True

Object name: CZ-6A DEB

International designator: 2024-140JC

Object number (NORAD): 60849

Object ID (CCSDS): 60849

Country: PEOPLES REPUBLIC OF CHINA (PRC)

Current information (Y/N): Y

RCS size: MEDIUM

Orbital parameters

Period: 98.411 minutes

Inclination: 89.1394 deg

SMA: 7060.814 km

Apoapsis: 792.065 km

Periapsis: 573.293 km

RAAN: 310.4844 deg

Eccentricy: 0.01549199

Argument of periapsis: 147.9466 deg

Mean anomaly: 213.1288 deg

Mean motion: 14.63256974 rev/day

Mean motion (dot): 0.00004877 rev/day2

B* drag term: 0.00079159577 1/REarth

Two-line elements (TLE)

Creation date: Sept. 4, 2025, 10:13 a.m.

Reference frame: TEME

Reference center: EARTH

Epoch: Sept. 4, 2025, 4:36 a.m. UTC

TLE line 0: 0 CZ-6A DEB

TLE line 1: 1 60849U 24140JC 25247.19190238 .00004877 00000-0 79160-3 0 9993

TLE line 2: 2 60849 89.1394 310.4844 0154920 147.9466 213.1288 14.63256974 56491

Live tracking on map

Real-time ground track for satellite CZ-6A DEB.

In-orbit conjunctions

A list of the most updated potential collisions computed for object CZ-6A DEB.

Target Orbit TCA Probability of collision Miss distance Type
CZ-6A DEB SSO 2025-03-31 09:16:42 0.0003085353 73.0 (m) DEBRIS
THORAD AGENA D DEB LEO 2025-03-02 03:20:50 0.0001059443 543.0 (m) DEBRIS
COSMOS 2251 DEB LEO 2024-12-04 09:25:03 0.0005481164 82.0 (m) DEBRIS
TITAN 4B R/B LEO 2024-11-22 21:51:05 0.0002860624 659.0 (m) ROCKET BODY
FENGYUN 1C DEB SSO 2024-11-13 08:51:07 0.0009075974 232.0 (m) DEBRIS

Associated space launch

18 Low Earth Orbit communication satellites with Ku, Q and V band payloads for the G60 constellation operated by Shanghai Spacecom Satellite Technology (SSST) with funding backed by the Shanghai local government. Initial constellation will consist of 1296 satellites by 2027 with long term plans to expand it to 12000 satellites.

CZ-6A DEB was lifted into orbit during the mission ‘Long March 6A | G60 Polar Group 01’, on board a Long March 6A space rocket.

The launch took place on Aug. 6, 2024, 6:42 a.m. from Launch Complex 9A.

For more information about the launch, click the button.

Launch to space Long March 6A | G60 Polar Group 01
Long March 6A | G60 Polar Group 01

Agency: N/A

Status: Launch Successful

Launch date: Aug. 6, 2024, 6:42 a.m. UTC

Rocket: Long March 6A

Launch pad: Launch Complex 9A

Location: Taiyuan Satellite Launch Center, People's Republic of China

...

Latest news about this satellite

News about space launch
Brightness of first Chinese broadband constellation satellites alarms astronomers

The first satellites of a Chinese broadband constellation are significantly brighter than those of Western systems, posing a new challenge for astronomers.

News about space launch
Chinese rocket stage breaks up into cloud of more than 700 pieces of space debris

HELSINKI — A Chinese Long March 6A rocket’s upper stage has fragmented into a cloud of over 700 pieces of space debris, adding to concerns about long-term orbital safety. China […]

News about space launch
China's Thousand Sails Megaconstellation Kicks Off with Dangerous Debris Field

China's Thousand Sails Megaconstellation Kicks Off with Dangerous Debris Field


Newsletter sign-up

Weekly statistics, charts and insights to help you stay on top of the space industry.